Tracking 30701 objects as of 14-Jun-2025
HD Live streaming from Space Station
objects crossing your sky now

NOAA 16 DEB

Track NOAA 16 DEB now!
10-day predictions


NORAD ID: 41409
Int'l Code: 2000-055KN
Perigee: 753.2 km
Apogee: 792.4 km
Inclination: 98.7 °
Period: 100.1 minutes
Semi major axis: 7143 km
RCS: Unknown
Launch date: September 21, 2000
Source: United States (US)
Launch site: AIR FORCE WESTERN TEST RANGE (AFWTR)

Note: This is SATELLITE DEBRIS
Your satellite tracking list
Your tracking list is empty




NASA's NSSDC Master Catalog

Two Line Element Set (TLE):
1 41409U 00055KN  25164.65870807  .00011202  00000-0  37083-2 0  9996
2 41409  98.6544 243.1081 0027447 217.0260 142.9033 14.37843464482906
Source of the keplerian elements: AFSPC